| time (UTC) | temp F | wind direction | speed MPH | gust MPH | rain 1hr in | rain 24hr in | rain mn in | humidity % | barometer mb |
| 20260507161551 | 52 | 257 | 1.0 | 4.0 | 0.00 | 0.20 | 0.00 | 39 | 1022.2 |
| 20260507160047 | 51 | 212 | 0.0 | 2.0 | 0.00 | 0.20 | 0.00 | 46 | 1022.2 |
| 20260507154549 | 49 | 297 | 1.0 | 5.0 | 0.00 | 0.20 | 0.00 | 49 | 1022.3 |
| 20260507153052 | 47 | 274 | 1.0 | 7.0 | 0.00 | 0.20 | 0.00 | 52 | 1022.3 |
| 20260507151543 | 45 | 278 | 3.0 | 10.0 | 0.00 | 0.20 | 0.00 | 50 | 1022.4 |
| 20260507150049 | 44 | 283 | 1.0 | 8.0 | 0.00 | 0.20 | 0.00 | 54 | 1022.2 |
| 20260507144539 | 43 | 280 | 2.0 | 7.0 | 0.00 | 0.20 | 0.00 | 57 | 1022.2 |
| 20260507143039 | 41 | 292 | 2.0 | 6.0 | 0.00 | 0.20 | 0.00 | 59 | 1022.2 |
| 20260507141547 | 39 | 0 | 0.0 | 4.0 | 0.00 | 0.20 | 0.00 | 63 | 1022.2 |
| 20260507140049 | 38 | 279 | 0.0 | 3.0 | 0.00 | 0.20 | 0.00 | 59 | 1022.2 |
| 20260507134554 | 37 | 0 | 1.0 | 5.0 | 0.00 | 0.20 | 0.00 | 60 | 1022.1 |
| 20260507133041 | 35 | 223 | 0.0 | 1.0 | 0.00 | 0.20 | 0.00 | 66 | 1021.8 |
| 20260507131559 | 34 | 258 | 0.0 | 2.0 | 0.00 | 0.20 | 0.00 | 65 | 1021.7 |
| 20260507130105 | 33 | 0 | 0.0 | 1.0 | 0.00 | 0.20 | 0.00 | 67 | 1021.7 |
| 20260507124538 | 32 | 0 | 0.0 | 2.0 | 0.00 | 0.20 | 0.00 | 66 | 1021.6 |
| 20260507123051 | 32 | 0 | 0.0 | 4.0 | 0.00 | 0.20 | 0.00 | 64 | 1021.3 |
| 20260507121543 | 29 | 0 | 0.0 | 1.0 | 0.00 | 0.20 | 0.00 | 70 | 1021.2 |
| 20260507120043 | 29 | 0 | 0.0 | 1.0 | 0.00 | 0.20 | 0.00 | 69 | 1021.2 |
| 20260507114543 | 29 | 0 | 0.0 | 3.0 | 0.00 | 0.20 | 0.00 | 68 | 1021.3 |
| 20260507113045 | 30 | 0 | 0.0 | 4.0 | 0.00 | 0.20 | 0.00 | 65 | 1021.2 |
| 20260507111544 | 30 | 203 | 1.0 | 3.0 | 0.00 | 0.20 | 0.00 | 65 | 1021.2 |
| 20260507110043 | 29 | 0 | 0.0 | 1.0 | 0.00 | 0.20 | 0.00 | 71 | 1021.1 |
| 20260507104543 | 29 | 0 | 0.0 | 1.0 | 0.00 | 0.20 | 0.00 | 68 | 1021.1 |
| 20260507103043 | 29 | 0 | 0.0 | 3.0 | 0.00 | 0.20 | 0.00 | 69 | 1021.1 |
| 20260507101540 | 28 | 0 | 0.0 | 1.0 | 0.00 | 0.20 | 0.00 | 74 | 1021.3 |
| 20260507100044 | 28 | 0 | 0.0 | 1.0 | 0.00 | 0.20 | 0.00 | 74 | 1021.4 |
| 20260507094544 | 27 | 0 | 0.0 | 1.0 | 0.00 | 0.20 | 0.00 | 77 | 1021.2 |
| 20260507093049 | 27 | 0 | 0.0 | 1.0 | 0.00 | 0.20 | 0.00 | 77 | 1021.3 |
| 20260507091549 | 27 | 0 | 0.0 | 0.0 | 0.00 | 0.20 | 0.00 | 77 | 1021.5 |
| 20260507090047 | 27 | 0 | 0.0 | 0.0 | 0.00 | 0.20 | 0.00 | 79 | 1021.6 |
| 20260507084548 | 27 | 0 | 0.0 | 1.0 | 0.00 | 0.20 | 0.00 | 79 | 1021.7 |
| 20260507083047 | 27 | 266 | 0.0 | 2.0 | 0.00 | 0.20 | 0.00 | 80 | 1021.7 |
| 20260507081555 | 27 | 238 | 0.0 | 1.0 | 0.00 | 0.20 | 0.00 | 83 | 1021.7 |
| 20260507080051 | 27 | 0 | 0.0 | 1.0 | 0.00 | 0.20 | 0.00 | 85 | 1021.8 |
| 20260507074600 | 26 | 0 | 0.0 | 1.0 | 0.00 | 0.20 | 0.00 | 87 | 1021.9 |
| 20260507073051 | 26 | 0 | 0.0 | 1.0 | 0.00 | 0.20 | 0.00 | 89 | 1022.0 |
| 20260507071543 | 26 | 0 | 0.0 | 1.0 | 0.00 | 0.20 | 0.00 | 91 | 1021.9 |
| 20260507070043 | 26 | 0 | 0.0 | 1.0 | 0.00 | 0.20 | 0.00 | 94 | 1022.0 |
| 20260507064540 | 25 | 0 | 0.0 | 0.0 | 0.00 | 0.20 | 0.00 | 95 | 1022.0 |
| 20260507063039 | 25 | 0 | 0.0 | 0.0 | 0.00 | 0.20 | 0.00 | 95 | 1022.0 |
| 20260507061544 | 25 | 0 | 0.0 | 0.0 | 0.00 | 0.20 | 0.00 | 95 | 1022.0 |
| 20260507060045 | 25 | 0 | 0.0 | 0.0 | 0.00 | 0.20 | 0.00 | 94 | 1021.9 |
| 20260507054607 | 25 | 0 | 0.0 | 0.0 | 0.00 | 0.20 | 0.20 | 94 | 1021.8 |
| 20260507053052 | 26 | 0 | 0.0 | 1.0 | 0.00 | 0.20 | 0.20 | 94 | 1021.9 |
| 20260507051549 | 27 | 0 | 0.0 | 1.0 | 0.00 | 0.20 | 0.20 | 94 | 1021.7 |
| 20260507050039 | 27 | 0 | 0.0 | 1.0 | 0.00 | 0.20 | 0.20 | 94 | 1021.7 |
| 20260507044549 | 27 | 219 | 0.0 | 3.0 | 0.00 | 0.20 | 0.20 | 94 | 1021.6 |
| 20260507043046 | 28 | 230 | 0.0 | 3.0 | 0.00 | 0.20 | 0.20 | 94 | 1021.6 |
| 20260507041548 | 28 | 153 | 0.0 | 2.0 | 0.00 | 0.20 | 0.20 | 94 | 1021.6 |
| 20260507040051 | 27 | 0 | 0.0 | 2.0 | 0.00 | 0.20 | 0.20 | 94 | 1021.7 |
| 20260507034555 | 27 | 0 | 0.0 | 3.0 | 0.00 | 0.20 | 0.20 | 93 | 1021.7 |
| 20260507033053 | 27 | 0 | 0.0 | 3.0 | 0.00 | 0.20 | 0.20 | 93 | 1021.5 |
| 20260507031602 | 27 | 0 | 0.0 | 3.0 | 0.00 | 0.20 | 0.20 | 92 | 1021.5 |
| 20260507030051 | 27 | 207 | 0.0 | 3.0 | 0.00 | 0.20 | 0.20 | 93 | 1021.2 |
| 20260507024545 | 27 | 125 | 0.0 | 2.0 | 0.00 | 0.20 | 0.20 | 91 | 1021.1 |
| 20260507023040 | 28 | 276 | 0.0 | 2.0 | 0.00 | 0.20 | 0.20 | 91 | 1021.0 |
| 20260507021539 | 28 | 0 | 0.0 | 2.0 | 0.00 | 0.20 | 0.20 | 90 | 1021.1 |
| 20260507020039 | 29 | 0 | 0.0 | 1.0 | 0.00 | 0.20 | 0.20 | 88 | 1020.9 |
| 20260507014555 | 30 | 39 | 0.0 | 3.0 | 0.00 | 0.20 | 0.20 | 86 | 1020.9 |
| 20260507013045 | 32 | 0 | 0.0 | 3.0 | 0.01 | 0.20 | 0.20 | 82 | 1020.9 |
| 20260507011544 | 34 | 0 | 0.0 | 1.0 | 0.01 | 0.20 | 0.20 | 80 | 1020.8 |
| 20260507010044 | 34 | 155 | 1.0 | 3.0 | 0.02 | 0.20 | 0.20 | 79 | 1020.7 |
| 20260507004540 | 33 | 171 | 0.0 | 3.0 | 0.02 | 0.20 | 0.20 | 81 | 1020.6 |
| 20260507003051 | 33 | 266 | 0.0 | 6.0 | 0.02 | 0.19 | 0.19 | 80 | 1020.6 |
| 20260507001543 | 35 | 171 | 0.0 | 3.0 | 0.03 | 0.19 | 0.19 | 76 | 1020.6 |
| 20260507000051 | 35 | 129 | 0.0 | 3.0 | 0.03 | 0.18 | 0.18 | 79 | 1020.6 |
| 20260506234540 | 34 | 0 | 0.0 | 5.0 | 0.04 | 0.19 | 0.18 | 76 | 1020.4 |
| 20260506233102 | 35 | 124 | 0.0 | 5.0 | 0.04 | 0.18 | 0.17 | 77 | 1020.5 |
| 20260506231541 | 33 | 271 | 0.0 | 2.0 | 0.05 | 0.17 | 0.16 | 78 | 1020.6 |
| 20260506230046 | 33 | 276 | 0.0 | 3.0 | 0.06 | 0.16 | 0.15 | 77 | 1020.5 |
| 20260506224543 | 33 | 276 | 1.0 | 4.0 | 0.06 | 0.17 | 0.14 | 77 | 1020.5 |
| 20260506223040 | 33 | 272 | 0.0 | 4.0 | 0.06 | 0.16 | 0.13 | 78 | 1020.6 |
| 20260506221550 | 33 | 1 | 1.0 | 4.0 | 0.07 | 0.14 | 0.11 | 81 | 1020.7 |
| 20260506220038 | 32 | 297 | 0.0 | 4.0 | 0.07 | 0.12 | 0.09 | 83 | 1020.7 |
| 20260506214550 | 32 | 17 | 2.0 | 6.0 | 0.08 | 0.12 | 0.08 | 80 | 1020.6 |
| 20260506213051 | 33 | 330 | 0.0 | 5.0 | 0.07 | 0.11 | 0.07 | 80 | 1020.8 |
| 20260506211543 | 33 | 0 | 1.0 | 6.0 | 0.04 | 0.08 | 0.04 | 76 | 1020.9 |
| 20260506210041 | 34 | 309 | 2.0 | 6.0 | 0.02 | 0.06 | 0.02 | 79 | 1020.9 |
| 20260506204550 | 34 | 31 | 1.0 | 9.0 | 0.00 | 0.05 | 0.00 | 79 | 1020.8 |
| 20260506203043 | 33 | 308 | 1.0 | 4.0 | 0.00 | 0.05 | 0.00 | 82 | 1021.0 |
| 20260506201543 | 32 | 74 | 2.0 | 4.0 | 0.00 | 0.05 | 0.00 | 83 | 1020.8 |
| 20260506200043 | 31 | 299 | 1.0 | 6.0 | 0.00 | 0.05 | 0.00 | 85 | 1020.7 |
| 20260506194555 | 30 | 23 | 0.0 | 5.0 | 0.00 | 0.07 | 0.00 | 86 | 1020.7 |
| 20260506193039 | 31 | 319 | 1.0 | 6.0 | 0.00 | 0.07 | 0.00 | 83 | 1020.7 |
| 20260506191538 | 30 | 318 | 1.0 | 6.0 | 0.00 | 0.07 | 0.00 | 84 | 1020.7 |
| 20260506190050 | 31 | 309 | 2.0 | 6.0 | 0.00 | 0.07 | 0.00 | 85 | 1020.6 |
| 20260506184544 | 30 | 311 | 1.0 | 6.0 | 0.00 | 0.10 | 0.00 | 86 | 1020.7 |
| 20260506183051 | 31 | 305 | 0.0 | 3.0 | 0.00 | 0.10 | 0.00 | 87 | 1020.8 |
| 20260506181550 | 30 | 0 | 1.0 | 5.0 | 0.00 | 0.10 | 0.00 | 87 | 1020.8 |
| 20260506174550 | 29 | 0 | 1.0 | 4.0 | 0.00 | 0.16 | 0.00 | 88 | 1020.7 |
| 20260506173049 | 29 | 0 | 0.0 | 3.0 | 0.00 | 0.16 | 0.00 | 89 | 1020.6 |
| 20260506171553 | 29 | 0 | 0.0 | 2.0 | 0.00 | 0.16 | 0.00 | 89 | 1020.0 |
| 20260506170053 | 28 | 0 | 0.0 | 4.0 | 0.00 | 0.16 | 0.00 | 90 | 1020.4 |
| 20260506164539 | 27 | 307 | 1.0 | 3.0 | 0.00 | 0.18 | 0.00 | 89 | 1020.2 |
| 20260506163057 | 27 | 37 | 0.0 | 3.0 | 0.00 | 0.18 | 0.00 | 91 | 1019.9 |